Location: Unspecified
(0.0000°N, 0.0000°E)
Time: 23:56:48
(UTC+00:00)

CAPRICORN - Pass Details

Date: 21 May 2026
Orbit: 325 x 40040 km, 64.5° (Epoch: 16 April)

Event Time Altitude Azimuth Distance (km) Brightness Sun altitude
Rises 20:19:48 0° 109° (ESE) 43,046 ? -33.3°
Reaches altitude 10° 21:09:01 10° 105° (ESE) 44,035 ? -44.3°
Maximum altitude 01:33:39 59° 50° (NE) 29,354 ? -58.9°
Drops below altitude 10° 03:24:53 10° 16° (NNE) 13,039 ? -35.2°
Sets 03:31:32 0° 18° (NNE) 12,245 ? -33.7°
